Temperature
22 22 21 21 21 20 20 20 20 19 19 19 19 18 18 18 17 17 17 17 17 17 17 17 17 17 17 17 17 17 17 17 17 17 17 17 17 17 17 17 17 17 17
21 21 21 21 21 21 20 20 20 19 19 19 19 18 18 18 17 17 17 17 17 17 17 17 17 17 17 17 17 17 17 17 17 17 17 17 17 17 17 17 17 17 17
21 21 21 21 21 21 20 20 20 19 19 19 18 18 18 18 17 17 17 17 17 17 17 17 17 17 17 17 17 17 17 16 16 16 17 17 17 17 17 17 17 17 17
22 21 21 21 21 21 20 20 20 19 19 19 18 18 18 18 17 17 17 17 17 17 17 17 17 17 16 16 16 16 16 16 16 16 16 16 17 17 17 17 17 17 17
22 22 21 21 21 20 20 20 19 19 19 18 18 18 18 17 17 17 17 17 17 17 17 17 17 16 16 16 16 16 16 16 16 16 16 16 16 16 16 16 17 17 17
22 22 22 21 21 20 20 20 19 19 19 18 18 18 18 17 17 17 17 17 17 17 17 17 16 16 16 16 16 16 16 16 16 16 16 16 16 16 16 16 16 16 16
23 22 22 21 21 20 20 20 19 19 19 18 18 18 17 17 17 17 17 17 17 17 17 17 16 16 16 16 16 16 16 16 16 16 16 16 16 16 16 16 16 16 16
23 22 22 22 21 21 20 20 19 19 18 18 18 18 17 17 17 17 17 17 17 16 16 16 16 16 16 16 16 16 16 16 16 16 16 16 16 16 16 16 16 16 15
23 22 22 22 22 21 21 20 19 19 18 18 18 18 17 17 17 17 17 16 16 16 16 16 16 16 16 16 16 16 16 16 16 16 16 16 16 15 15 16 16 15 15
23 22 22 22 22 21 21 20 19 19 19 18 18 18 17 17 17 17 17 16 16 16 16 16 16 16 16 16 16 16 15 15 16 15 15 15 15 15 15 15 15 15 15
23 23 22 22 21 21 20 20 19 19 18 18 18 18 17 17 17 17 17 17 16 16 16 16 16 16 16 16 16 15 15 15 15 15 15 15 15 15 15 15 15 15 15
23 23 22 22 21 21 20 20 19 19 18 18 18 18 18 17 17 17 17 17 16 16 16 16 16 16 15 15 15 15 15 15 15 15 15 15 15 15 15 15 15 14 14
23 22 22 22 21 20 20 20 19 19 18 18 18 18 17 17 17 17 17 16 16 16 16 16 16 15 15 15 15 15 15 15 15 15 15 15 15 15 14 14 14 14 14
23 22 22 21 21 21 20 20 19 19 18 18 18 17 17 17 17 17 16 16 16 16 16 16 15 15 15 15 15 15 14 14 14 14 14 14 14 14 14 14 14 14 14
22 22 22 21 21 20 20 20 19 19 18 18 18 17 17 17 17 17 16 16 16 16 16 15 15 15 15 15 15 14 14 14 14 14 14 14 14 14 14 14 14 14 13
22 22 21 21 21 21 20 20 19 19 18 18 17 17 17 17 17 17 16 16 16 16 15 15 15 15 15 15 14 14 14 14 14 14 14 13 13 13 13 13 13 13 13
21 21 21 21 21 21 20 20 19 19 18 18 17 17 17 17 17 16 16 16 16 16 15 15 15 15 15 14 14 14 14 14 13 13 13 13 13 13 13 13 13 13 13
21 21 21 21 21 21 20 20 19 19 18 18 17 17 17 17 16 16 16 16 16 15 15 15 15 15 14 14 14 14 13 13 13 13 13 13 13 13 13 13 13 13 12
22 21 21 21 20 20 20 19 19 18 18 18 17 17 17 17 16 16 16 16 15 15 15 15 15 14 14 14 14 13 13 13 13 13 12 12 12 12 12 12 12 12 12
22 21 21 20 20 20 19 19 18 18 18 17 17 17 16 16 16 16 16 15 15 15 15 14 14 14 14 14 13 13 13 13 13 12 12 12 12 12 12 12 12 12 12
21 21 20 20 20 19 19 18 18 18 17 17 17 17 16 16 16 16 15 15 15 15 14 14 14 14 14 13 13 13 13 12 12 12 12 12 12 12 12 11 11 11 11
21 20 20 20 19 19 18 18 18 18 17 17 17 16 16 16 16 15 15 15 15 14 14 14 14 14 14 13 13 13 12 12 12 12 12 12 12 12 12 11 11 11 11
20 20 20 19 19 19 18 18 18 17 17 17 17 16 16 16 16 15 15 15 14 14 14 14 14 13 13 13 13 13 12 12 12 12 12 12 11 11 11 11 11 11 11
19 19 19 19 18 18 18 18 17 17 17 17 16 16 16 16 15 15 15 15 14 14 14 14 13 13 13 13 13 13 13 12 12 12 12 11 11 11 11 11 11 11 10
19 19 19 18 18 18 18 17 17 16 16 16 16 16 16 15 15 15 15 14 14 14 14 14 13 13 13 13 13 13 12 12 12 12 11 11 11 11 11 11 11 10 10
18 18 18 18 17 17 17 17 16 16 16 16 16 15 15 15 15 15 14 14 14 14 13 13 13 13 13 13 12 12 12 12 12 11 11 11 11 11 11 10 10 10 10
Wind_Speed
7 7 8 9 8 7 6 6 5 5 4 3 2 2 1 1 1 1 1 1 2 2 2 1 1 1 1 1 1 1 1 1 0 1 2 3 2 1 2 2 2 3 5
6 7 7 7 8 8 7 6 6 5 5 3 3 2 2 1 1 1 1 1 2 2 2 2 1 1 1 1 1 1 1 1 1 2 1 2 3 2 1 1 2 2 2
9 8 8 8 8 8 8 7 5 5 4 4 3 2 2 2 1 1 1 1 1 2 1 1 1 1 2 1 1 1 1 1 1 1 2 2 2 2 2 1 1 2 2
8 7 8 8 8 7 6 5 5 4 4 4 4 4 3 2 2 1 1 1 0 1 1 1 1 1 1 1 1 1 1 2 1 1 1 2 3 2 1 2 2 0 2
11 10 9 9 8 8 6 5 5 4 4 4 4 4 3 2 1 1 0 1 1 0 1 1 1 0 0 0 0 1 1 1 1 0 1 0 0 1 2 1 2 1 1
11 10 8 7 6 6 6 5 5 4 3 4 4 4 4 3 2 1 1 0 1 1 1 0 0 0 1 0 1 1 1 1 1 0 0 1 1 1 2 2 2 1 2
10 9 9 8 7 7 7 6 6 4 3 4 3 4 4 3 3 2 2 1 0 1 1 0 0 0 1 1 1 1 1 1 1 1 1 1 1 1 2 2 1 1 1
10 10 10 10 10 9 8 7 6 4 3 3 2 2 3 2 1 1 1 1 1 1 1 0 0 0 0 1 1 1 1 1 0 1 1 1 1 1 2 2 2 1 1
10 10 9 9 9 9 8 8 7 5 4 4 3 2 1 2 2 1 1 1 1 1 1 1 1 1 1 0 1 1 0 0 0 1 1 1 1 0 0 1 2 3 2
9 10 9 9 8 8 7 7 7 6 5 5 4 3 2 2 2 1 2 2 2 1 1 1 1 1 1 2 2 1 1 1 0 0 0 1 1 1 1 1 1 2 3
10 10 8 8 8 8 7 7 6 5 5 4 4 3 3 2 2 2 2 2 1 1 1 1 1 1 1 1 1 1 1 1 2 2 1 1 1 1 1 1 1 1 2
9 9 9 8 8 8 7 6 6 5 5 4 4 3 3 2 2 2 2 2 2 1 1 1 1 1 1 1 1 1 1 1 1 1 1 1 1 1 1 1 1 1 2
9 8 8 8 8 8 7 6 6 6 5 4 4 3 2 2 2 2 2 2 2 1 1 1 1 1 1 0 0 1 0 1 1 1 1 0 1 1 1 1 1 1 2
8 8 8 8 8 8 7 7 6 5 5 4 4 3 3 3 2 2 2 2 2 2 1 1 1 1 1 1 0 1 1 1 1 1 1 1 1 1 1 1 1 2 2
8 9 9 7 7 7 6 6 6 5 6 5 4 4 3 2 2 2 2 2 2 2 1 2 1 1 1 1 1 1 2 1 1 1 1 1 1 1 1 1 1 2 2
9 9 9 8 8 7 6 6 6 6 6 6 5 4 3 2 2 2 2 2 2 2 2 2 2 1 1 1 2 2 2 1 1 0 1 1 2 2 2 2 2 3 3
7 9 9 9 8 8 7 6 5 4 5 5 5 4 4 3 3 3 2 2 3 3 2 2 2 2 0 1 2 2 2 1 0 0 0 1 2 2 2 2 3 1 1
9 8 8 8 7 6 6 5 5 5 5 5 4 4 4 3 3 2 3 3 2 3 3 2 3 2 1 0 1 2 2 1 0 0 1 1 1 1 0 1 1 2 2
8 7 7 7 6 6 6 6 5 5 5 5 4 4 4 4 3 3 3 3 3 2 2 2 2 2 2 2 1 2 1 0 1 1 0 1 1 2 0 1 0 2 3
7 6 6 6 6 5 6 7 6 5 4 5 4 3 4 3 3 3 3 3 3 3 3 2 3 3 3 2 2 2 1 1 1 1 2 2 2 2 1 1 1 1 3
7 8 8 6 5 5 7 7 5 5 4 4 4 3 3 3 3 2 2 2 2 2 2 2 2 2 3 3 3 3 2 2 1 2 2 3 3 2 2 1 2 3 2
7 8 8 6 4 5 7 6 5 4 3 4 3 3 2 2 2 2 2 2 2 2 2 2 1 1 2 2 3 3 4 3 3 3 3 3 3 2 2 1 2 2 1
6 6 7 6 4 5 6 6 5 4 4 4 3 2 2 1 2 3 2 2 2 2 2 2 2 2 1 1 2 2 4 5 3 3 4 4 3 3 2 3 3 2 0
5 5 6 6 4 4 4 4 4 4 5 4 3 2 2 1 1 2 2 2 3 3 3 3 3 3 2 2 2 1 1 2 2 2 3 3 4 3 3 3 2 2 2
4 5 6 4 3 3 3 2 3 4 4 3 2 2 2 2 1 1 2 3 4 5 5 5 4 4 4 5 6 3 2 2 2 1 1 1 1 2 2 2 2 2 2
4 5 5 4 3 2 2 2 3 4 4 2 2 2 2 1 2 1 1 3 4 5 6 7 6 5 7 6 6 5 5 4 3 2 1 2 3 3 3 3 3 3 3
Wind_Direction
174 163 161 159 149 150 147 150 147 154 144 136 132 122 120 103 71 68 89 130 136 133 130 119 131 133 143 167 125 96 67 337 30 51 348 331 311 238 223 200 183 195 195
171 173 172 164 160 163 163 159 162 168 162 164 162 150 141 143 132 37 45 125 128 142 148 134 157 149 134 103 78 80 90 325 83 128 97 357 350 350 335 195 186 187 174
174 174 171 173 166 167 170 170 172 169 165 152 129 106 78 52 36 16 358 357 137 138 122 109 118 137 153 171 171 130 143 203 306 146 147 157 228 291 325 293 201 182 185
167 168 166 166 170 171 166 162 159 161 162 151 140 145 145 164 205 208 245 315 60 127 150 110 88 110 148 169 210 143 146 157 243 315 247 186 172 169 294 322 320 253 194
172 174 173 170 173 168 160 153 148 154 156 156 156 153 157 186 197 161 101 4 346 3 162 133 65 89 134 134 125 120 121 145 168 239 281 280 98 149 169 257 308 327 278
174 175 171 162 163 160 156 151 145 154 162 158 158 161 168 171 167 169 148 303 296 313 335 40 78 136 150 154 170 151 129 131 143 176 111 157 188 224 178 202 233 259 287
169 167 167 167 168 163 164 160 157 164 168 160 165 175 177 175 180 187 189 204 247 294 296 301 204 211 212 180 138 123 119 135 136 202 224 212 225 208 179 169 198 220 302
170 170 175 177 177 171 171 167 163 161 160 157 167 178 175 162 172 185 189 210 220 226 234 221 332 300 197 146 124 110 157 123 190 250 236 238 262 212 176 174 164 145 8
173 172 175 177 172 169 172 169 164 163 167 162 158 157 161 158 166 176 177 203 229 217 182 114 73 22 25 51 126 88 7 72 252 260 274 278 301 43 113 156 164 160 168
169 171 175 174 167 162 163 161 163 168 168 163 169 166 176 174 170 151 173 200 215 206 146 103 75 48 53 61 65 45 29 49 316 209 42 22 15 49 53 99 160 158 161
167 171 169 161 153 151 155 155 155 160 169 175 173 166 176 174 161 163 190 195 185 164 142 150 116 76 61 65 70 44 59 65 23 29 63 57 64 68 50 60 82 98 124
162 165 160 151 150 154 157 157 160 165 173 174 171 174 178 171 169 191 210 175 158 153 142 135 128 121 101 97 91 81 84 94 65 41 84 53 79 63 59 77 88 108 130
158 156 152 153 156 159 159 163 166 171 172 163 160 158 162 165 185 212 209 165 142 132 118 121 134 130 111 112 132 163 158 118 100 117 120 133 95 69 60 89 95 103 108
153 150 153 157 159 158 162 168 172 172 165 159 160 168 180 188 197 198 184 159 145 138 136 130 121 104 76 69 79 83 86 75 61 79 98 98 121 177 183 125 119 115 107
148 152 154 153 152 153 160 165 171 173 168 163 171 187 185 171 160 162 172 168 159 162 155 125 118 107 103 83 97 97 101 93 61 30 22 54 82 69 162 162 164 132 122
157 154 151 152 156 160 166 168 177 178 167 167 179 180 163 156 167 190 185 164 167 171 144 147 138 122 117 102 97 107 97 91 93 42 334 360 21 28 34 73 130 144 152
153 157 162 166 169 173 172 175 174 163 156 162 170 170 168 171 192 197 188 185 185 169 160 173 158 155 133 108 107 100 111 93 102 175 356 351 13 29 35 40 44 48 174
162 169 168 167 169 167 162 157 153 149 146 152 165 172 171 184 202 193 189 193 182 176 180 182 178 164 200 180 161 137 112 93 326 245 176 148 328 340 58 68 19 339 306
166 169 167 162 158 157 154 143 140 141 146 164 179 184 177 181 190 195 208 205 189 188 190 192 181 187 242 238 182 149 121 97 296 295 239 187 241 291 214 107 44 332 316
156 150 139 131 146 158 144 137 139 144 165 180 182 182 181 175 187 203 212 205 187 191 185 200 200 193 218 228 205 178 168 213 280 309 310 288 270 282 292 152 172 277 287
139 134 128 134 156 153 140 141 147 170 184 172 163 166 179 182 180 192 204 191 182 178 188 202 219 211 220 230 223 198 181 201 231 266 280 284 282 270 285 215 216 240 251
133 133 133 140 147 145 143 149 170 186 162 151 156 170 183 191 175 171 196 185 173 183 207 198 228 248 238 229 243 220 200 193 199 238 253 265 274 263 280 277 270 277 306
144 141 141 140 143 147 149 162 181 162 145 139 158 179 186 193 177 179 193 198 189 190 211 205 217 238 256 262 250 216 206 205 209 241 252 256 257 255 267 270 279 278 252
149 147 136 137 150 155 149 163 164 150 141 150 170 183 179 196 175 180 186 191 204 201 203 207 212 223 228 245 257 248 233 222 233 266 278 274 261 254 251 266 276 245 222
153 146 143 150 165 150 134 148 148 139 141 159 179 187 196 198 192 205 210 209 221 208 200 210 207 204 229 237 214 198 210 214 223 234 349 354 309 289 286 276 262 251 252
138 138 141 144 162 169 157 161 164 152 149 161 194 213 211 205 190 200 275 271 241 236 218 215 209 219 222 223 215 215 220 221 187 147 207 246 248 249 257 267 272 255 243
Height
1520 1520 1521 1522 1523 1524 1524 1524 1525 1525 1525 1525 1525 1525 1524 1524 1524 1523 1522 1521 1520 1520 1520 1519 1519 1519 1519 1519 1519 1519 1519 1519 1519 1519 1519 1520 1520 1521 1521 1522 1522 1523 1524
1519 1520 1521 1521 1522 1522 1523 1524 1524 1524 1524 1525 1525 1525 1525 1524 1524 1523 1522 1522 1521 1520 1520 1519 1519 1519 1518 1518 1518 1518 1518 1518 1518 1518 1518 1518 1520 1519 1520 1520 1521 1521 1522
1517 1518 1519 1520 1521 1521 1522 1523 1523 1523 1524 1524 1525 1525 1524 1524 1523 1523 1522 1522 1521 1521 1520 1519 1519 1518 1518 1517 1517 1517 1517 1517 1517 1517 1518 1518 1517 1518 1519 1519 1519 1519 1520
1516 1517 1517 1518 1519 1521 1521 1522 1523 1523 1523 1524 1524 1523 1523 1523 1523 1522 1522 1522 1521 1520 1520 1519 1519 1518 1517 1517 1517 1516 1516 1516 1516 1516 1516 1517 1517 1517 1517 1517 1517 1518 1518
1514 1515 1515 1516 1518 1519 1520 1521 1521 1522 1522 1523 1523 1523 1523 1523 1523 1522 1522 1521 1521 1520 1520 1519 1518 1517 1517 1516 1516 1516 1516 1515 1515 1515 1515 1515 1515 1515 1515 1515 1516 1516 1516
1512 1513 1515 1516 1517 1518 1519 1520 1520 1521 1522 1522 1522 1522 1522 1522 1522 1521 1521 1521 1520 1520 1519 1519 1518 1517 1516 1516 1515 1515 1515 1515 1514 1514 1514 1514 1514 1513 1513 1513 1513 1514 1515
1510 1511 1513 1515 1516 1517 1518 1519 1520 1520 1521 1521 1521 1521 1521 1521 1521 1521 1520 1520 1520 1519 1518 1518 1517 1516 1516 1515 1514 1514 1514 1514 1513 1513 1512 1512 1512 1512 1512 1512 1512 1512 1513
1508 1510 1511 1513 1514 1515 1517 1518 1519 1520 1520 1520 1520 1520 1521 1520 1520 1520 1520 1519 1519 1518 1518 1517 1517 1516 1515 1514 1514 1513 1513 1513 1512 1511 1511 1510 1510 1510 1510 1511 1510 1510 1511
1506 1508 1510 1512 1513 1514 1517 1518 1518 1519 1519 1519 1520 1520 1520 1520 1519 1519 1519 1518 1518 1518 1517 1517 1516 1515 1514 1513 1513 1512 1512 1511 1511 1510 1510 1509 1509 1509 1508 1508 1509 1509 1508
1505 1507 1509 1511 1513 1514 1516 1517 1518 1518 1519 1519 1519 1519 1519 1519 1519 1518 1518 1518 1517 1517 1516 1516 1515 1514 1513 1512 1512 1511 1510 1510 1509 1508 1508 1508 1507 1507 1507 1507 1507 1507 1507
1503 1505 1507 1510 1511 1513 1515 1515 1517 1517 1518 1518 1518 1518 1518 1517 1517 1517 1517 1517 1516 1516 1515 1515 1514 1513 1512 1511 1511 1510 1509 1508 1508 1507 1507 1506 1506 1506 1505 1505 1505 1505 1505
1502 1505 1506 1509 1510 1512 1513 1514 1515 1516 1517 1517 1517 1517 1516 1516 1516 1516 1516 1516 1515 1515 1514 1514 1513 1512 1511 1510 1510 1509 1508 1507 1506 1506 1505 1505 1505 1504 1504 1504 1503 1503 1504
1501 1503 1505 1507 1509 1510 1511 1513 1514 1515 1515 1516 1516 1515 1515 1515 1514 1514 1514 1514 1514 1513 1513 1512 1512 1511 1510 1510 1509 1508 1507 1506 1505 1505 1504 1503 1503 1502 1502 1502 1502 1502 1502
1499 1502 1504 1506 1507 1509 1510 1512 1513 1513 1514 1514 1514 1514 1513 1513 1513 1513 1513 1513 1512 1512 1512 1511 1511 1510 1510 1509 1508 1507 1506 1505 1505 1504 1503 1503 1502 1502 1501 1501 1501 1501 1501
1499 1501 1503 1504 1506 1507 1509 1511 1512 1512 1512 1513 1513 1513 1512 1512 1512 1512 1512 1511 1511 1511 1510 1510 1509 1509 1508 1507 1507 1506 1505 1504 1503 1503 1502 1502 1501 1500 1500 1499 1499 1499 1499
1497 1499 1501 1503 1505 1506 1508 1509 1509 1510 1510 1511 1511 1511 1511 1511 1511 1511 1510 1509 1509 1509 1509 1508 1508 1507 1507 1506 1506 1505 1504 1503 1502 1501 1501 1500 1500 1499 1498 1498 1498 1498 1498
1497 1498 1500 1501 1503 1504 1505 1507 1507 1508 1509 1509 1509 1510 1510 1510 1509 1509 1509 1508 1507 1507 1506 1506 1506 1505 1505 1505 1504 1503 1503 1502 1501 1500 1499 1499 1498 1498 1497 1497 1497 1497 1496
1495 1497 1498 1500 1501 1502 1504 1505 1506 1507 1507 1508 1508 1508 1508 1508 1508 1507 1507 1506 1506 1505 1505 1504 1504 1504 1504 1503 1503 1502 1501 1500 1499 1499 1498 1498 1497 1497 1496 1495 1495 1495 1495
1493 1495 1497 1498 1500 1501 1502 1504 1504 1505 1505 1506 1506 1506 1506 1505 1505 1505 1505 1504 1504 1503 1503 1503 1503 1502 1502 1502 1501 1501 1500 1499 1498 1497 1497 1496 1496 1495 1495 1494 1493 1493 1493
1491 1493 1495 1496 1498 1500 1501 1502 1502 1502 1503 1503 1503 1504 1504 1503 1503 1503 1503 1503 1502 1501 1501 1501 1501 1500 1500 1500 1499 1499 1498 1497 1496 1496 1496 1495 1494 1494 1493 1492 1492 1491 1491
1489 1491 1493 1494 1496 1498 1499 1499 1500 1500 1501 1502 1502 1502 1502 1502 1502 1501 1501 1501 1500 1500 1499 1499 1499 1499 1498 1498 1497 1497 1496 1495 1495 1494 1494 1493 1492 1492 1491 1491 1490 1490 1489
1487 1489 1491 1493 1495 1496 1497 1497 1497 1498 1499 1499 1499 1500 1500 1500 1500 1500 1499 1499 1498 1498 1497 1497 1497 1497 1496 1496 1495 1495 1494 1494 1493 1492 1491 1491 1490 1489 1489 1489 1488 1488 1487
1487 1488 1489 1491 1492 1494 1495 1495 1496 1496 1497 1497 1497 1498 1498 1498 1498 1498 1497 1497 1496 1496 1495 1495 1494 1494 1494 1493 1493 1493 1492 1491 1491 1490 1489 1489 1488 1487 1486 1486 1486 1485 1485
1487 1487 1488 1489 1490 1491 1492 1493 1494 1494 1495 1495 1495 1495 1495 1495 1495 1496 1495 1495 1494 1493 1493 1493 1492 1492 1491 1491 1490 1490 1489 1489 1488 1488 1487 1486 1486 1485 1485 1484 1484 1483 1482
1487 1487 1487 1488 1489 1490 1490 1491 1492 1493 1493 1493 1493 1493 1493 1493 1493 1493 1493 1492 1492 1492 1491 1490 1490 1489 1488 1488 1488 1487 1486 1486 1486 1485 1484 1484 1483 1482 1482 1481 1481 1480 1480
1485 1486 1487 1487 1488 1488 1489 1489 1490 1491 1491 1491 1491 1491 1491 1491 1490 1490 1490 1490 1490 1490 1489 1488 1488 1487 1486 1486 1485 1485 1484 1483 1483 1482 1481 1481 1480 1479 1479 1478 1477 1477 1476